Orbital Elements at Epoch 2459200.5 (2020-Dec-17.0) TDB
Reference: JPL 19 (heliocentric ecliptic J2000)
Element | Value | Uncertainty (1-sigma) | Units |
e | .4432427235893877 | 3.4708e-07 | |
a | 2.58548956207538 | 6.4453e-08 | au |
q | 1.439490126769156 | 9.052e-07 | au |
i | 28.34671212389841 | 2.3597e-05 | deg |
node | 78.37661624353676 | 1.8415e-05 | deg |
peri | 258.2036371562484 | 7.2009e-05 | deg |
M | 112.6571111688629 | 2.0078e-05 | deg |
tp | 2458725.308438399796 (2019-Aug-29.80843840) | 9.5076e-05 | TDB |
period | 1518.492356151903 4.16 | 5.6781e-05 1.555e-07 | d yr |
n | .2370772553062409 | 8.865e-09 | deg/d |
Q | 3.731488997381605 | 9.3021e-08 | au |
|
| | Orbit Determination Parameters
Additional Information
|